• Em Portugal
  • Lista de países
  • Para 7 dias
  • Temperatura da água
  • Mapas de satélite
  • Mapa do tempo
  • Widgets de tempo
  • user-avatar
    Iniciar Sessão

    Previsão horária em Potosi

    Hoje, 18 Setembro, Terça-feira

    Tempo Temperatura Precipitação Vento Pressão Humidade
    00:00 +4°C° 0 mm 2 m/s 465 mmHg 35%
    01:00 +3°C° 0 mm 2 m/s 465 mmHg 35%
    02:00 +2°C° 0 mm 2 m/s 464 mmHg 39%
    03:00 +2°C° 0 mm 2 m/s 463 mmHg 34%
    04:00 +1°C° 0 mm 2 m/s 463 mmHg 30%
    05:00 +1°C° 0 mm 2 m/s 463 mmHg 25%
    06:00 +2°C° 0 mm 2 m/s 464 mmHg 20%
    07:00 +4°C° 0 mm 2 m/s 466 mmHg 15%
    08:00 +5°C° 0 mm 3 m/s 468 mmHg 9%
    09:00 +8°C° 0 mm 3 m/s 469 mmHg 7%
    10:00 +10°C° 0 mm 3 m/s 470 mmHg 5%
    11:00 +12°C° 0 mm 3 m/s 471 mmHg 3%
    12:00 +13°C° 0 mm 4 m/s 471 mmHg 3%
    13:00 +14°C° 0 mm 4 m/s 471 mmHg 2%
    14:00 +15°C° 0 mm 4 m/s 471 mmHg 2%
    15:00 +15°C° 0 mm 5 m/s 470 mmHg 2%
    16:00 +15°C° 0 mm 6 m/s 469 mmHg 3%
    17:00 +14°C° 0 mm 7 m/s 469 mmHg 3%
    18:00 +13°C° 0 mm 5 m/s 468 mmHg 5%
    19:00 +11°C° 0 mm 4 m/s 467 mmHg 7%
    20:00 +9°C° 0 mm 3 m/s 467 mmHg 9%
    21:00 +8°C° 0 mm 3 m/s 467 mmHg 13%
    22:00 +7°C° 0 mm 2 m/s 466 mmHg 17%
    23:00 +6°C° 0 mm 2 m/s 466 mmHg 22%

    Amanhã, 19 Setembro, Quarta-feira

    Tempo Temperatura Precipitação Vento Pressão Humidade
    00:00 +5°C° 0 mm 2 m/s 465 mmHg 21%
    01:00 +5°C° 0 mm 2 m/s 465 mmHg 20%
    02:00 +4°C° 0 mm 2 m/s 464 mmHg 19%
    03:00 +3°C° 0 mm 2 m/s 464 mmHg 17%
    04:00 +2°C° 0 mm 2 m/s 464 mmHg 14%
    05:00 +2°C° 0 mm 2 m/s 463 mmHg 11%
    06:00 +3°C° 0 mm 2 m/s 465 mmHg 9%
    07:00 +5°C° 0 mm 2 m/s 466 mmHg 7%
    08:00 +7°C° 0 mm 2 m/s 468 mmHg 5%
    09:00 +9°C° 0 mm 3 m/s 469 mmHg 4%
    10:00 +11°C° 0 mm 4 m/s 470 mmHg 3%
    11:00 +14°C° 0 mm 4 m/s 472 mmHg 2%
    12:00 +14°C° 0 mm 5 m/s 472 mmHg 2%
    13:00 +15°C° 0 mm 5 m/s 472 mmHg 2%
    14:00 +16°C° 0 mm 5 m/s 472 mmHg 2%
    15:00 +16°C° 0 mm 6 m/s 471 mmHg 2%
    16:00 +16°C° 0 mm 6 m/s 471 mmHg 3%
    17:00 +15°C° 0 mm 6 m/s 470 mmHg 3%
    18:00 +13°C° 0.3 mm 6 m/s 469 mmHg 14%
    19:00 +9°C° 0.3 mm 5 m/s 468 mmHg 25%
    20:00 +7°C° 0.3 mm 4 m/s 467 mmHg 36%
    21:00 +6°C° 0 mm 4 m/s 467 mmHg 43%
    22:00 +7°C° 0 mm 3 m/s 467 mmHg 51%
    23:00 +6°C° 0 mm 2 m/s 468 mmHg 58%

    Depois de amanhã, 20 Setembro, Quinta-feira

    Tempo Temperatura Precipitação Vento Pressão Humidade
    00:00 +6°C° 0 mm 2 m/s 467 mmHg 60%
    01:00 +5°C° 0 mm 2 m/s 466 mmHg 62%
    02:00 +4°C° 0 mm 2 m/s 466 mmHg 64%
    03:00 +4°C° 0 mm 2 m/s 465 mmHg 61%
    04:00 +4°C° 0 mm 2 m/s 465 mmHg 58%
    05:00 +3°C° 0 mm 2 m/s 465 mmHg 54%
    06:00 +4°C° 0 mm 2 m/s 466 mmHg 46%
    07:00 +6°C° 0 mm 2 m/s 467 mmHg 37%
    08:00 +7°C° 0 mm 2 m/s 469 mmHg 28%
    09:00 +9°C° 0 mm 2 m/s 470 mmHg 23%
    10:00 +12°C° 0 mm 2 m/s 471 mmHg 17%
    11:00 +14°C° 0 mm 2 m/s 472 mmHg 11%
    12:00 +14°C° 0 mm 3 m/s 472 mmHg 11%
    13:00 +16°C° 0 mm 3 m/s 472 mmHg 10%
    14:00 +17°C° 0 mm 3 m/s 472 mmHg 10%
    15:00 +15°C° 0.2 mm 4 m/s 471 mmHg 15%
    16:00 +14°C° 0.2 mm 5 m/s 471 mmHg 21%
    17:00 +14°C° 0.2 mm 6 m/s 470 mmHg 27%
    18:00 +12°C° 0 mm 5 m/s 470 mmHg 36%
    19:00 +11°C° 0 mm 4 m/s 469 mmHg 46%
    20:00 +9°C° 0 mm 3 m/s 469 mmHg 55%
    21:00 +8°C° 0.1 mm 3 m/s 469 mmHg 61%
    22:00 +8°C° 0.1 mm 3 m/s 469 mmHg 66%
    23:00 +7°C° 0.1 mm 3 m/s 469 mmHg 71%

    21 Setembro, Sexta-feira

    Tempo Temperatura Precipitação Vento Pressão Humidade
    00:00 +7°C° 0 mm 2 m/s 468 mmHg 72%
    01:00 +6°C° 0 mm 2 m/s 468 mmHg 72%
    02:00 +6°C° 0 mm 2 m/s 468 mmHg 73%
    03:00 +5°C° 0 mm 2 m/s 467 mmHg 74%
    04:00 +6°C° 0 mm 1 m/s 466 mmHg 75%
    05:00 +5°C° 0 mm 1 m/s 466 mmHg 75%
    06:00 +6°C° 0 mm 1 m/s 467 mmHg 66%
    07:00 +7°C° 0 mm 1 m/s 468 mmHg 56%
    08:00 +8°C° 0 mm 1 m/s 469 mmHg 47%
    09:00 +10°C° 0 mm 1 m/s 470 mmHg 38%
    10:00 +12°C° 0 mm 1 m/s 471 mmHg 29%
    11:00 +14°C° 0 mm 2 m/s 472 mmHg 21%
    12:00 +15°C° 0 mm 2 m/s 472 mmHg 19%
    13:00 +16°C° 0 mm 3 m/s 472 mmHg 18%
    14:00 +16°C° 0 mm 3 m/s 472 mmHg 17%
    15:00 +15°C° 0.2 mm 4 m/s 471 mmHg 22%
    16:00 +14°C° 0.2 mm 5 m/s 471 mmHg 27%
    17:00 +14°C° 0.2 mm 6 m/s 470 mmHg 32%
    18:00 +13°C° 0.4 mm 5 m/s 470 mmHg 39%
    19:00 +11°C° 0.4 mm 4 m/s 469 mmHg 47%
    20:00 +10°C° 0.4 mm 3 m/s 469 mmHg 55%
    21:00 +9°C° 0.1 mm 3 m/s 469 mmHg 58%
    22:00 +9°C° 0.1 mm 3 m/s 469 mmHg 61%
    23:00 +8°C° 0.1 mm 2 m/s 469 mmHg 64%

    22 Setembro, Sábado

    Tempo Temperatura Precipitação Vento Pressão Humidade
    00:00 +8°C° 0 mm 2 m/s 468 mmHg 66%
    01:00 +8°C° 0 mm 1 m/s 468 mmHg 69%
    02:00 +8°C° 0 mm 1 m/s 467 mmHg 71%
    03:00 +7°C° 0 mm 1 m/s 467 mmHg 72%
    04:00 +7°C° 0 mm 1 m/s 466 mmHg 72%
    05:00 +6°C° 0 mm 1 m/s 466 mmHg 72%
    06:00 +7°C° 0 mm 1 m/s 467 mmHg 64%
    07:00 +8°C° 0 mm 1 m/s 468 mmHg 56%
    08:00 +9°C° 0 mm 1 m/s 469 mmHg 48%
    09:00 +11°C° 0 mm 1 m/s 470 mmHg 40%
    10:00 +13°C° 0 mm 1 m/s 471 mmHg 31%
    11:00 +14°C° 0 mm 2 m/s 471 mmHg 22%
    12:00 +15°C° 0 mm 2 m/s 471 mmHg 20%
    13:00 +16°C° 0 mm 3 m/s 471 mmHg 18%
    14:00 +17°C° 0 mm 3 m/s 471 mmHg 16%
    15:00 +17°C° 0.2 mm 4 m/s 470 mmHg 20%
    16:00 +15°C° 0.2 mm 5 m/s 470 mmHg 25%
    17:00 +14°C° 0.2 mm 6 m/s 469 mmHg 29%
    18:00 +12°C° 2.4 mm 5 m/s 468 mmHg 39%
    19:00 +9°C° 2.4 mm 5 m/s 468 mmHg 49%
    20:00 +7°C° 2.4 mm 5 m/s 467 mmHg 59%
    21:00 +8°C° 0.2 mm 4 m/s 468 mmHg 54%
    22:00 +9°C° 0.2 mm 3 m/s 468 mmHg 49%
    23:00 +9°C° 0.2 mm 3 m/s 469 mmHg 44%

    23 Setembro, Domingo

    Tempo Temperatura Precipitação Vento Pressão Humidade
    00:00 +9°C° 0 mm 2 m/s 468 mmHg 43%
    01:00 +9°C° 0 mm 2 m/s 468 mmHg 42%
    02:00 +10°C° 0 mm 1 m/s 468 mmHg 41%
    03:00 +9°C° 0 mm 1 m/s 467 mmHg 43%
    04:00 +8°C° 0 mm 1 m/s 467 mmHg 46%
    05:00 +8°C° 0 mm 1 m/s 466 mmHg 48%
    06:00 +8°C° 0 mm 1 m/s 467 mmHg 45%
    07:00 +9°C° 0 mm 1 m/s 468 mmHg 41%
    08:00 +9°C° 0 mm 0 m/s 469 mmHg 37%
    09:00 +12°C° 0 mm 1 m/s 470 mmHg 33%
    10:00 +13°C° 0 mm 2 m/s 471 mmHg 29%
    11:00 +14°C° 0 mm 2 m/s 471 mmHg 25%
    12:00 +14°C° 0 mm 4 m/s 471 mmHg 24%
    13:00 +15°C° 0 mm 5 m/s 471 mmHg 23%
    14:00 +16°C° 0 mm 6 m/s 471 mmHg 23%
    15:00 +14°C° 1 mm 7 m/s 470 mmHg 30%
    16:00 +12°C° 1 mm 7 m/s 469 mmHg 38%
    17:00 +10°C° 1 mm 7 m/s 468 mmHg 45%
    18:00 +9°C° 2 mm 6 m/s 468 mmHg 50%
    19:00 +8°C° 2 mm 5 m/s 468 mmHg 55%
    20:00 +7°C° 2 mm 4 m/s 468 mmHg 60%
    21:00 +8°C° 0.3 mm 3 m/s 468 mmHg 59%
    22:00 +8°C° 0.3 mm 3 m/s 469 mmHg 58%
    23:00 +8°C° 0.3 mm 2 m/s 469 mmHg 57%
    Mostrar mais